Previsão horária em Allate

Hoje, 15 Janeiro, Sexta-feira

Tempo Temperatura Precipitação Vento Pressão Humidade
00:00 +2°C° 0 mm 2 m/s 628 mmHg 80%
01:00 +2°C° 0 mm 2 m/s 627 mmHg 77%
02:00 +2°C° 0 mm 2 m/s 627 mmHg 75%
03:00 +1°C° 0 mm 3 m/s 627 mmHg 72%
04:00 +1°C° 0 mm 3 m/s 626 mmHg 69%
05:00 +1°C° 0 mm 3 m/s 626 mmHg 67%
06:00 +1°C° 0 mm 3 m/s 625 mmHg 64%
07:00 +2°C° 0 mm 3 m/s 625 mmHg 61%
08:00 +3°C° 0 mm 3 m/s 625 mmHg 57%
09:00 +4°C° 0 mm 3 m/s 625 mmHg 53%
10:00 +5°C° 0.1 mm 4 m/s 626 mmHg 51%
11:00 +6°C° 0.1 mm 4 m/s 627 mmHg 49%
12:00 +7°C° 0.1 mm 5 m/s 627 mmHg 47%
13:00 +6°C° 0 mm 4 m/s 628 mmHg 48%
14:00 +6°C° 0 mm 4 m/s 628 mmHg 49%
15:00 +5°C° 0 mm 4 m/s 629 mmHg 52%
16:00 +3°C° 0 mm 3 m/s 629 mmHg 58%
17:00 +2°C° 0 mm 2 m/s 629 mmHg 63%
18:00 -1°C° 0 mm 2 m/s 629 mmHg 69%
19:00 -1°C° 0 mm 2 m/s 629 mmHg 64%
20:00 -2°C° 0 mm 2 m/s 630 mmHg 60%
21:00 -2°C° 0 mm 3 m/s 630 mmHg 55%
22:00 -2°C° 0 mm 3 m/s 630 mmHg 60%
23:00 -4°C° 0 mm 3 m/s 630 mmHg 66%

Amanhã, 16 Janeiro, Sábado

Tempo Temperatura Precipitação Vento Pressão Humidade
00:00 -3°C° 0 mm 2 m/s 630 mmHg 71%
01:00 -3°C° 0 mm 2 m/s 631 mmHg 73%
02:00 -1°C° 0 mm 1 m/s 631 mmHg 74%
03:00 -1°C° 0 mm 1 m/s 631 mmHg 75%
04:00 -1°C° 0 mm 1 m/s 632 mmHg 77%
05:00 -2°C° 0 mm 1 m/s 632 mmHg 80%
06:00 -4°C° 0 mm 2 m/s 632 mmHg 83%
07:00 -3°C° 0 mm 2 m/s 633 mmHg 80%
08:00 -3°C° 0 mm 2 m/s 633 mmHg 77%
09:00 -3°C° 0 mm 2 m/s 634 mmHg 74%
10:00 -2°C° 0 mm 2 m/s 634 mmHg 69%
11:00 -1°C° 0 mm 2 m/s 634 mmHg 65%
12:00 +1°C° 0 mm 2 m/s 634 mmHg 60%
13:00 +1°C° 0 mm 2 m/s 634 mmHg 63%
14:00 +1°C° 0 mm 2 m/s 633 mmHg 66%
15:00 +1°C° 0 mm 2 m/s 633 mmHg 68%
16:00 +1°C° 0 mm 1 m/s 633 mmHg 72%
17:00 0°C° 0 mm 1 m/s 632 mmHg 76%
18:00 -1°C° 0 mm 1 m/s 632 mmHg 80%
19:00 0°C° 0 mm 1 m/s 632 mmHg 76%
20:00 0°C° 0 mm 1 m/s 632 mmHg 73%
21:00 -2°C° 0 mm 2 m/s 632 mmHg 69%
22:00 -2°C° 0 mm 2 m/s 632 mmHg 67%
23:00 -1°C° 0 mm 2 m/s 631 mmHg 65%

Depois de amanhã, 17 Janeiro, Domingo

Tempo Temperatura Precipitação Vento Pressão Humidade
00:00 -1°C° 0 mm 2 m/s 631 mmHg 63%
01:00 -1°C° 0 mm 2 m/s 631 mmHg 63%
02:00 -1°C° 0 mm 2 m/s 630 mmHg 63%
03:00 -1°C° 0 mm 2 m/s 630 mmHg 64%
04:00 -1°C° 0 mm 2 m/s 629 mmHg 63%
05:00 -1°C° 0 mm 2 m/s 629 mmHg 61%
06:00 -1°C° 0 mm 2 m/s 628 mmHg 60%
07:00 -1°C° 0 mm 2 m/s 628 mmHg 56%
08:00 +1°C° 0 mm 2 m/s 628 mmHg 52%
09:00 +2°C° 0 mm 2 m/s 628 mmHg 47%
10:00 +3°C° 0 mm 2 m/s 628 mmHg 44%
11:00 +6°C° 0 mm 1 m/s 628 mmHg 40%
12:00 +7°C° 0 mm 1 m/s 628 mmHg 36%
13:00 +7°C° 0 mm 1 m/s 628 mmHg 40%
14:00 +7°C° 0 mm 1 m/s 627 mmHg 44%
15:00 +6°C° 0 mm 1 m/s 627 mmHg 48%
16:00 +4°C° 0 mm 2 m/s 627 mmHg 51%
17:00 +3°C° 0 mm 2 m/s 626 mmHg 53%
18:00 0°C° 0 mm 3 m/s 626 mmHg 55%
19:00 0°C° 0 mm 3 m/s 626 mmHg 54%
20:00 0°C° 0 mm 3 m/s 625 mmHg 53%
21:00 -1°C° 0 mm 3 m/s 625 mmHg 52%
22:00 -1°C° 0 mm 3 m/s 625 mmHg 52%
23:00 0°C° 0 mm 3 m/s 625 mmHg 52%

18 Janeiro, Segunda-feira

Tempo Temperatura Precipitação Vento Pressão Humidade
00:00 +1°C° 0 mm 2 m/s 625 mmHg 53%
01:00 +1°C° 0 mm 2 m/s 625 mmHg 53%
02:00 +1°C° 0 mm 2 m/s 624 mmHg 52%
03:00 +1°C° 0 mm 2 m/s 624 mmHg 52%
04:00 +1°C° 0 mm 2 m/s 624 mmHg 53%
05:00 -1°C° 0 mm 2 m/s 624 mmHg 54%
06:00 -1°C° 0 mm 2 m/s 625 mmHg 55%
07:00 +1°C° 0 mm 2 m/s 625 mmHg 57%
08:00 +1°C° 0 mm 2 m/s 626 mmHg 60%
09:00 +1°C° 0 mm 2 m/s 627 mmHg 62%
10:00 +2°C° 0 mm 2 m/s 628 mmHg 60%
11:00 +2°C° 0 mm 2 m/s 628 mmHg 57%
12:00 +3°C° 0 mm 2 m/s 629 mmHg 55%
13:00 +2°C° 0 mm 2 m/s 629 mmHg 61%
14:00 +1°C° 0 mm 2 m/s 629 mmHg 67%
15:00 -1°C° 0 mm 2 m/s 629 mmHg 74%
16:00 -2°C° 0 mm 2 m/s 629 mmHg 79%
17:00 -1°C° 0 mm 1 m/s 630 mmHg 84%
18:00 -1°C° 0 mm 1 m/s 630 mmHg 90%
19:00 -2°C° 0.1 mm 1 m/s 630 mmHg 90%
20:00 -2°C° 0.1 mm 1 m/s 630 mmHg 90%
21:00 -4°C° 0.1 mm 2 m/s 630 mmHg 91%
22:00 -5°C° 0.2 mm 2 m/s 631 mmHg 88%
23:00 -5°C° 0.2 mm 2 m/s 631 mmHg 85%

19 Janeiro, Terça-feira

Tempo Temperatura Precipitação Vento Pressão Humidade
00:00 -3°C° 0.2 mm 1 m/s 632 mmHg 82%
01:00 -3°C° 0.1 mm 1 m/s 632 mmHg 83%
02:00 -4°C° 0.1 mm 1 m/s 632 mmHg 84%
03:00 -4°C° 0.1 mm 1 m/s 632 mmHg 85%
04:00 -6°C° 0 mm 1 m/s 632 mmHg 85%
05:00 -6°C° 0 mm 1 m/s 632 mmHg 84%
06:00 -6°C° 0 mm 1 m/s 632 mmHg 84%
07:00 -6°C° 0.1 mm 1 m/s 633 mmHg 85%
08:00 -6°C° 0.1 mm 1 m/s 633 mmHg 86%
09:00 -6°C° 0.1 mm 1 m/s 633 mmHg 86%
10:00 -7°C° 0.2 mm 2 m/s 633 mmHg 86%
11:00 -7°C° 0.2 mm 2 m/s 633 mmHg 85%
12:00 -7°C° 0.2 mm 2 m/s 633 mmHg 85%
13:00 -8°C° 0.3 mm 2 m/s 632 mmHg 85%
14:00 -8°C° 0.3 mm 2 m/s 632 mmHg 85%
15:00 -8°C° 0.3 mm 2 m/s 631 mmHg 85%
16:00 -9°C° 0.3 mm 2 m/s 631 mmHg 86%
17:00 -8°C° 0.3 mm 1 m/s 631 mmHg 87%
18:00 -9°C° 0.3 mm 1 m/s 631 mmHg 88%
19:00 -9°C° 0.3 mm 1 m/s 631 mmHg 89%
20:00 -9°C° 0.3 mm 1 m/s 631 mmHg 90%
21:00 -9°C° 0.3 mm 1 m/s 631 mmHg 90%
22:00 -9°C° 0.3 mm 1 m/s 631 mmHg 91%
23:00 -9°C° 0.3 mm 1 m/s 631 mmHg 92%

20 Janeiro, Quarta-feira

Tempo Temperatura Precipitação Vento Pressão Humidade
00:00 -9°C° 0.3 mm 1 m/s 631 mmHg 93%
01:00 -10°C° 0.2 mm 1 m/s 631 mmHg 93%
02:00 -10°C° 0.2 mm 1 m/s 631 mmHg 93%
03:00 -10°C° 0.2 mm 0 m/s 631 mmHg 93%
04:00 -11°C° 0.1 mm 0 m/s 631 mmHg 93%
05:00 -11°C° 0.1 mm 0 m/s 631 mmHg 94%
06:00 -11°C° 0.1 mm 0 m/s 632 mmHg 94%
07:00 -11°C° 0.1 mm 0 m/s 632 mmHg 92%
08:00 -10°C° 0.1 mm 0 m/s 633 mmHg 91%
09:00 -10°C° 0.1 mm 0 m/s 633 mmHg 89%
10:00 -9°C° 0.1 mm 1 m/s 633 mmHg 88%
11:00 -9°C° 0.1 mm 1 m/s 633 mmHg 86%
12:00 -9°C° 0.1 mm 2 m/s 633 mmHg 85%
13:00 -9°C° 0.1 mm 2 m/s 633 mmHg 86%
14:00 -9°C° 0.1 mm 2 m/s 634 mmHg 87%
15:00 -9°C° 0.1 mm 2 m/s 634 mmHg 88%
16:00 -9°C° 0.1 mm 1 m/s 634 mmHg 90%
17:00 -10°C° 0.1 mm 1 m/s 634 mmHg 93%
18:00 -11°C° 0.1 mm 1 m/s 634 mmHg 96%
19:00 -11°C° 0.1 mm 1 m/s 634 mmHg 95%
20:00 -11°C° 0.1 mm 1 m/s 635 mmHg 94%
21:00 -12°C° 0.1 mm 1 m/s 635 mmHg 93%
22:00 -12°C° 0.1 mm 1 m/s 635 mmHg 92%
23:00 -12°C° 0.1 mm 1 m/s 635 mmHg 91%
Mostrar mais

Necessitamos do seu Consentimento

A Meteoprog e os seus Fornecedores de Serviços podem armazenar e aceder a dados pessoais como cookies, identificadores do dispositivo ou outras tecnologias semelhantes existentes no seu dispositivo e processar estes dados para personalizar conteúdos e anúncios, assim como funcionalidades nas redes sociais e análise de tráfego.

  • Armazenar e/ou aceder a informações no seu dispositivo

    Os cookies, identificadores do dispositivo ou outras informações podem ser armazenados ou acedidos no seu dispositivo, para os fins acima indicados.

  • Anúncios e conteúdos personalizados, medição de anúncios e conteúdos, dados sobre o público-alvo e desenvolvimento de produtos

    Os anúncios e os conteúdos podem ser personalizados com base num perfil. Podem ser adicionados dados adicionais para uma maior personalização dos anúncios e dos conteúdos. A eficácia dos anúncios e dos conteúdos pode ser medida. Podem ser obtidas informações sobre o público que visualizou os anúncios e os conteúdos. Estes dados podem ser usados para desenvolver ou melhorar sistemas, softwares ou a experiência do utilizador.

Ao clicar em "Eu concordo”, permitirá o uso de cookies, identificadores do dispositivo e web beacons mencionados ou outras tecnologias semelhantes. As configurações do navegador do seu dispositivo podem ser alteradas.

Para certos fins, podem ser invocados interesses legítimos ao invés de consentimento. Pode ler mais informação sobre este assunto na nossa Política de Privacidade e Cookies.